Showing default

RISAT 2B, 44233

Orbit data source: Space-Track

RISAT 2B, 44233 is a payload satellite owned by ISRO (IN) in LEO that was launched on Wed, 22 May 2019 UTC via a PSLV launch vehicle from the Sirharikota (SRI). Payload-class satellites include a variety of spacecraft equipped with specific instruments for various scientific and technological missions. These include communications satellites like Starlink; space stations such as the ISS; scientific satellites like the Hubble; Earth observation satellites from companies like Planet Labs, Umbra, and HawkEye 360; GPS; miniature CubeSats for education and research; and military/defense satellites.

Loading next visibility...
Identifier
44233, 2019-028A
Orbit
LEO
Country
Flag of ININ / IND
Related business
Manufacturer
ISRO
Mission
Operational Civil Radar Imaging
Bus & Motor
TECHSAR, Unknown motor
Mass
615 kg wet, 615 kg dry
Launch date (UTC)
2019-05-22 (7 years ago)
Launch vehicle
PSLV
Launch site
Sirharikota (SRI)
Object type
Payload
Rocket body
Debris
Shape & HBR
Hex Cyl + 2 Pan + 1 Dish, 1.5 m
Radar Cross Section
0.801 m², Large (>1 m²)

Expand to show TLE details & history
Last TLE update: 21 hours ago

TLE from 21 hours ago
0 RISAT 2B
1 44233U 19028A   26172.54038774  .00002600  00000-0  20241-3 0  9992
2 44233  36.9980 328.2734 0003796  66.7478 293.3665 15.01676716388480
Epoch: 2026-06-21T12:58Z
TLE epoch observation values (Epoch: 2026-06-21T12:58:09.500Z)
Latitude
0.00002°
Longitude
-136.00535°
Altitude
559.809 km
Speed
7.584 km/s
True Right ascension
21h 53m 05s
True Declination
0° 00' 00"
Sunlit
Object was in full shadow at epoch
Visualization orbit readout
Latitude
Unknown
Longitude
Unknown
Altitude
Unknown
Speed
Unknown
Apparent Right ascension
Unknown
Apparent Declination
Unknown
Sunlit
N/A
Visualization observer readout
Local Sidereal Time
21:25:09
Azimuth
Unknown
Elevation
Unknown
Doppler factor
Unknown
Orbital elements
Apogee altitude
567.265 km
Perigee altitude
561.994 km
Semi-major axis
6,942.767 km
Eccentricity
0.00038
Inclination
36.998°
RAAN
328.2734°
Arg. of periapsis
66.7478°
True anomaly
293.32656°
Mean anomaly
293.3665°
Eccentric anomaly
293.34653°
Mean motion
3.75184 °/min
Orbital period
95.95 mins
BSTAR
0.00020241
Loading maneuver chart data...
Computing Atmospheric mass density...
Loading historical data...
Loading historical data...
Loading historical data...
Loading historical data...
Loading historical data...
Loading historical data...
Loading historical data...
Other satellites on launch #28 in the year 2019 (2019-05-22 UTC)

Documentation

Showing up to 5 results
|